,,PA_Meas_PMT16A,,PR_Meas_QMR101_102,,RH_Meas_QMH101,,SR_Meas_QMS101,,TA_Meas_QMH101,,GenWind,,GenWind,
time,status,PA,status,PR,status,RH,status,SR,status,TA,status,DirAvg,status,SpdAvg,
2012-04-19, 00:00:04,VALID,916.704,VALID,0,VALID,97.2062,VALID,0,VALID,20.3448,VALID,13,VALID,0,
2012-04-19, 00:01:04,VALID,916.684,VALID,0,VALID,97.1986,VALID,0,VALID,20.3448,VALID,13,VALID,0,
2012-04-19, 00:02:04,VALID,916.701,VALID,0,VALID,97.1909,VALID,0,VALID,20.3643,VALID,13,VALID,0,
2012-04-19, 00:03:04,VALID,916.688,VALID,0,VALID,97.1757,VALID,0,VALID,20.3253,VALID,13,VALID,0,
2012-04-19, 00:04:04,VALID,916.694,VALID,0,VALID,97.1909,VALID,0,VALID,20.3253,VALID,13,VALID,0,
2012-04-19, 00:05:04,VALID,916.679,VALID,0,VALID,97.2062,VALID,0,VALID,20.3058,VALID,13,VALID,0,
2012-04-19, 00:06:04,VALID,916.704,VALID,0,VALID,97.1909,VALID,0,VALID,20.3058,VALID,13,VALID,0,
2012-04-19, 00:07:04,VALID,916.708,VALID,0,VALID,97.1833,VALID,0,VALID,20.2473,VALID,13,VALID,0,
2012-04-19, 00:08:04,VALID,916.697,VALID,0,VALID,97.1604,VALID,0,VALID,20.2278,VALID,13,VALID,0,
2012-04-19, 00:09:04,VALID,916.669,VALID,0,VALID,97.1833,VALID,0,VALID,20.2278,VALID,13,VALID,0,
2012-04-19, 00:10:04,VALID,916.657,VALID,0,VALID,97.1909,VALID,0,VALID,20.2278,VALID,13,VALID,0,
2012-04-19, 00:11:04,VALID,916.64,VALID,0,VALID,97.2062,VALID,0,VALID,20.2083,VALID,13,VALID,0.459375,
2012-04-19, 00:12:04,VALID,916.62,VALID,0,VALID,97.1909,VALID,0,VALID,20.1693,VALID,13,VALID,0.585547,
2012-04-19, 00:13:04,VALID,916.636,VALID,0,VALID,97.1986,VALID,0,VALID,20.1693,VALID,13,VALID,0.575391,
2012-04-19, 00:14:04,VALID,916.635,VALID,0,VALID,97.2214,VALID,0,VALID,20.1498,VALID,13,VALID,0.330078,
2012-04-19, 00:15:04,VALID,916.613,VALID,0,VALID,97.2062,VALID,0,VALID,20.1498,VALID,13,VALID,0.616016,
2012-04-19, 00:16:04,VALID,916.637,VALID,0,VALID,97.2214,VALID,0,VALID,20.1498,VALID,13,VALID,0.419922,
2012-04-19, 00:17:04,VALID,916.586,VALID,0,VALID,97.229,VALID,0,VALID,20.1303,VALID,13,VALID,0.245703,
2012-04-19, 00:18:04,VALID,916.579,VALID,0,VALID,97.2443,VALID,0,VALID,20.1498,VALID,13,VALID,0,
2012-04-19, 00:19:04,VALID,916.546,VALID,0,VALID,97.2519,VALID,0,VALID,20.1288,VALID,13,VALID,0,
2012-04-19, 00:20:04,VALID,916.564,VALID,0,VALID,97.2519,VALID,0,VALID,20.1498,VALID,13,VALID,0,
2012-04-19, 00:21:04,VALID,916.581,VALID,0,VALID,97.2824,VALID,0,VALID,20.1693,VALID,13,VALID,0,
2012-04-19, 00:22:04,VALID,916.544,VALID,0,VALID,97.2672,VALID,0,VALID,20.1483,VALID,13,VALID,0,
2012-04-19, 00:23:04,VALID,916.54,VALID,0,VALID,97.2824,VALID,0,VALID,20.1888,VALID,13,VALID,0,
2012-04-19, 00:24:04,VALID,916.528,VALID,0,VALID,97.2748,VALID,0,VALID,20.1888,VALID,13,VALID,0.0773437,
2012-04-19, 00:25:04,VALID,916.541,VALID,0,VALID,97.2672,VALID,0,VALID,20.1888,VALID,13,VALID,0,
2012-04-19, 00:26:04,VALID,916.486,VALID,0,VALID,97.2977,VALID,0,VALID,20.1873,VALID,13,VALID,0.116406,
2012-04-19, 00:27:04,VALID,916.489,VALID,0,VALID,97.2824,VALID,0,VALID,20.2083,VALID,13,VALID,0.532812,
2012-04-19, 00:28:04,VALID,916.498,VALID,0,VALID,97.29,VALID,0,VALID,20.1257,VALID,13,VALID,0,
2012-04-19, 00:29:04,VALID,916.496,VALID,0,VALID,97.3205,VALID,0,VALID,20.2083,VALID,13,VALID,0,
2012-04-19, 00:30:04,VALID,916.49,VALID,0,VALID,97.2977,VALID,0,VALID,20.1693,VALID,13,VALID,0,
2012-04-19, 00:31:04,VALID,916.487,VALID,0,VALID,97.2977,VALID,0,VALID,20.1693,VALID,13,VALID,0,
2012-04-19, 00:32:04,VALID,916.518,VALID,0,VALID,97.3053,VALID,0,VALID,20.1693,VALID,13,VALID,0,
2012-04-19, 00:33:04,VALID,916.504,VALID,0,VALID,97.3281,VALID,0,VALID,20.1498,VALID,13,VALID,0,
2012-04-19, 00:34:04,VALID,916.454,VALID,0,VALID,97.3129,VALID,0,VALID,20.1693,VALID,13,VALID,0,
2012-04-19, 00:35:04,VALID,916.456,VALID,0,VALID,97.3358,VALID,0,VALID,20.1693,VALID,13,VALID,0,
2012-04-19, 00:36:04,VALID,916.403,VALID,0,VALID,97.3281,VALID,0,VALID,20.1693,VALID,13,VALID,0,
2012-04-19, 00:37:04,VALID,916.359,VALID,0,VALID,97.3205,VALID,0,VALID,20.1498,VALID,13,VALID,0,
2012-04-19, 00:38:04,VALID,916.334,VALID,0,VALID,97.3129,VALID,0,VALID,20.1498,VALID,13,VALID,0,
2012-04-19, 00:39:04,VALID,916.302,VALID,0,VALID,97.3129,VALID,0,VALID,20.0882,VALID,13,VALID,0.154687,
2012-04-19, 00:40:04,VALID,916.286,VALID,0,VALID,97.3281,VALID,0,VALID,20.1303,VALID,13,VALID,0.253516,
2012-04-19, 00:41:04,VALID,916.244,VALID,0,VALID,97.3205,VALID,0,VALID,20.1303,VALID,13,VALID,0,
2012-04-19, 00:42:04,VALID,916.238,VALID,0,VALID,97.3358,VALID,0,VALID,20.1303,VALID,13,VALID,0,
2012-04-19, 00:43:04,VALID,916.222,VALID,0,VALID,97.3434,VALID,0,VALID,20.1303,VALID,13,VALID,0,
2012-04-19, 00:44:04,VALID,916.205,VALID,0,VALID,97.351,VALID,0,VALID,20.1303,VALID,13,VALID,0.0121094,
2012-04-19, 00:45:04,VALID,916.17,VALID,0,VALID,97.3281,VALID,0,VALID,20.1498,VALID,13,VALID,0.432422,
2012-04-19, 00:46:04,VALID,916.141,VALID,0,VALID,97.3434,VALID,0,VALID,20.1303,VALID,13,VALID,0.248437,
2012-04-19, 00:47:04,VALID,916.094,VALID,0,VALID,97.3434,VALID,0,VALID,20.1108,VALID,13,VALID,0.0375,
2012-04-19, 00:48:04,VALID,916.103,VALID,0,VALID,97.3358,VALID,0,VALID,20.0913,VALID,13,VALID,0.401172,
2012-04-19, 00:49:04,VALID,916.083,VALID,0,VALID,97.3281,VALID,0,VALID,19.9938,VALID,13,VALID,0.323828,
2012-04-19, 00:50:04,VALID,916.089,VALID,0,VALID,97.3358,VALID,0,VALID,19.9938,VALID,13,VALID,0.239453,
2012-04-19, 00:51:04,VALID,916.082,VALID,0,VALID,97.3129,VALID,0,VALID,19.9548,VALID,13,VALID,0.308984,
2012-04-19, 00:52:04,VALID,916.036,VALID,0,VALID,97.3281,VALID,0,VALID,19.9353,VALID,13,VALID,0.328516,
2012-04-19, 00:53:04,VALID,916.036,VALID,0,VALID,97.3281,VALID,0,VALID,19.9158,VALID,13,VALID,0.513281,
2012-04-19, 00:54:04,VALID,916.037,VALID,0,VALID,97.2977,VALID,0,VALID,19.8768,VALID,13,VALID,0.464844,
2012-04-19, 00:55:04,VALID,916.013,VALID,0,VALID,97.3205,VALID,0,VALID,19.8378,VALID,13,VALID,0.652734,
2012-04-19, 00:56:04,VALID,915.974,VALID,0,VALID,97.351,VALID,0,VALID,19.8378,VALID,13,VALID,0.626562,
2012-04-19, 00:57:04,VALID,915.956,VALID,0,VALID,97.3358,VALID,0,VALID,19.7973,VALID,13,VALID,0.503516,
2012-04-19, 00:58:04,VALID,915.953,VALID,0,VALID,97.3434,VALID,0,VALID,19.8183,VALID,13,VALID,0.459375,
2012-04-19, 00:59:04,VALID,915.957,VALID,0,VALID,97.351,VALID,0,VALID,19.7808,VALID,13,VALID,0.321484,
2012-04-19, 01:00:04,VALID,915.967,VALID,0,VALID,97.3586,VALID,0,VALID,19.7598,VALID,13,VALID,0.253125,
2012-04-19, 01:01:04,VALID,915.975,VALID,0,VALID,97.3663,VALID,0,VALID,19.7613,VALID,13,VALID,0.392188,
2012-04-19, 01:02:04,VALID,915.987,VALID,0,VALID,97.3739,VALID,0,VALID,19.7208,VALID,13,VALID,0.360547,
2012-04-19, 01:03:04,VALID,915.983,VALID,0,VALID,97.3434,VALID,0,VALID,19.7223,VALID,13,VALID,0.466016,
2012-04-19, 01:04:04,VALID,915.95,VALID,0,VALID,97.3739,VALID,0,VALID,19.7013,VALID,13,VALID,0.688281,
2012-04-19, 01:05:04,VALID,915.989,VALID,0,VALID,97.3739,VALID,0,VALID,19.6818,VALID,13,VALID,0.813281,
2012-04-19, 01:06:04,VALID,915.946,VALID,0,VALID,97.3739,VALID,0,VALID,19.6623,VALID,13,VALID,0.738281,
2012-04-19, 01:07:04,VALID,915.959,VALID,0,VALID,97.4196,VALID,0,VALID,19.6428,VALID,13,VALID,0.567578,
2012-04-19, 01:08:04,VALID,915.97,VALID,0,VALID,97.3815,VALID,0,VALID,19.6638,VALID,13,VALID,0.395703,
2012-04-19, 01:09:04,VALID,915.931,VALID,0,VALID,97.3891,VALID,0,VALID,19.6233,VALID,13,VALID,0.214844,
2012-04-19, 01:10:04,VALID,915.922,VALID,0,VALID,97.4044,VALID,0,VALID,19.5828,VALID,13,VALID,0,
2012-04-19, 01:11:04,VALID,915.908,VALID,0,VALID,97.412,VALID,0,VALID,19.5633,VALID,13,VALID,0,
2012-04-19, 01:12:04,VALID,915.883,VALID,0,VALID,97.412,VALID,0.107441,VALID,19.5633,VALID,13,VALID,0,
2012-04-19, 01:13:04,VALID,915.849,VALID,0,VALID,97.412,VALID,0.107441,VALID,19.5828,VALID,13,VALID,0,
2012-04-19, 01:14:04,VALID,915.845,VALID,0,VALID,97.412,VALID,0,VALID,19.5633,VALID,13,VALID,0,
2012-04-19, 01:15:04,VALID,915.794,VALID,0,VALID,97.4349,VALID,0,VALID,19.5633,VALID,13,VALID,0,
2012-04-19, 01:16:04,VALID,915.773,VALID,0,VALID,97.4196,VALID,0,VALID,19.5828,VALID,13,VALID,0,
2012-04-19, 01:17:04,VALID,915.734,VALID,0,VALID,97.4349,VALID,0,VALID,19.5843,VALID,13,VALID,0,
2012-04-19, 01:18:04,VALID,915.683,VALID,0,VALID,97.4654,VALID,0,VALID,19.6038,VALID,13,VALID,0.375,
2012-04-19, 01:19:04,VALID,915.665,VALID,0,VALID,97.473,VALID,0,VALID,19.6233,VALID,13,VALID,0.153125,
2012-04-19, 01:20:04,VALID,915.655,VALID,0,VALID,97.473,VALID,0,VALID,19.6428,VALID,13,VALID,0.166797,
2012-04-19, 01:21:04,VALID,915.642,VALID,0,VALID,97.4654,VALID,0,VALID,19.6623,VALID,13,VALID,0.0195313,
2012-04-19, 01:22:04,VALID,915.612,VALID,0,VALID,97.473,VALID,0,VALID,19.6818,VALID,13,VALID,0.234375,
2012-04-19, 01:23:04,VALID,915.631,VALID,0,VALID,97.4806,VALID,0,VALID,19.7223,VALID,13,VALID,0,
2012-04-19, 01:24:04,VALID,915.6,VALID,0,VALID,97.4806,VALID,0,VALID,19.7223,VALID,13,VALID,0.295703,
2012-04-19, 01:25:04,VALID,915.604,VALID,0,VALID,97.5035,VALID,0,VALID,19.7013,VALID,13,VALID,0,
2012-04-19, 01:26:04,VALID,915.547,VALID,0,VALID,97.4577,VALID,0,VALID,19.6428,VALID,13,VALID,0,
2012-04-19, 01:27:04,VALID,915.567,VALID,0,VALID,97.4577,VALID,0,VALID,19.5843,VALID,13,VALID,0.155078,
2012-04-19, 01:28:04,VALID,915.564,VALID,0,VALID,97.4654,VALID,0,VALID,19.6248,VALID,13,VALID,0.285547,
2012-04-19, 01:29:04,VALID,915.583,VALID,0,VALID,97.4501,VALID,0,VALID,19.5633,VALID,13,VALID,0.219922,
2012-04-19, 01:30:04,VALID,915.599,VALID,0,VALID,97.4654,VALID,0,VALID,19.5648,VALID,13,VALID,0.614844,
2012-04-19, 01:31:04,VALID,915.57,VALID,0,VALID,97.4654,VALID,0,VALID,19.5648,VALID,13,VALID,0.694531,
2012-04-19, 01:32:04,VALID,915.592,VALID,0,VALID,97.5187,VALID,0,VALID,19.5843,VALID,13,VALID,0.682422,
2012-04-19, 01:33:04,VALID,915.573,VALID,0,VALID,97.5187,VALID,0,VALID,19.6053,VALID,13,VALID,0.586719,
2012-04-19, 01:34:04,VALID,915.552,VALID,0,VALID,97.5035,VALID,0,VALID,19.6053,VALID,359,VALID,0.874609,
2012-04-19, 01:35:04,VALID,915.543,VALID,0,VALID,97.4882,VALID,0,VALID,19.5843,VALID,348,VALID,1.06016,
2012-04-19, 01:36:04,VALID,915.527,VALID,0,VALID,97.5111,VALID,0,VALID,19.5843,VALID,352,VALID,0.882813,
2012-04-19, 01:37:04,VALID,915.555,VALID,0,VALID,97.5416,VALID,0,VALID,19.6053,VALID,352,VALID,0.514453,
2012-04-19, 01:38:04,VALID,915.529,VALID,0,VALID,97.5111,VALID,0,VALID,19.6233,VALID,352,VALID,0.742578,
2012-04-19, 01:39:04,VALID,915.535,VALID,0,VALID,97.534,VALID,0,VALID,19.6443,VALID,352,VALID,0.894141,
2012-04-19, 01:40:04,VALID,915.52,VALID,0,VALID,97.5264,VALID,0,VALID,19.6233,VALID,352,VALID,0.570313,
2012-04-19, 01:41:04,VALID,915.553,VALID,0,VALID,97.5416,VALID,0,VALID,19.6623,VALID,352,VALID,0.680469,
2012-04-19, 01:42:04,VALID,915.532,VALID,0,VALID,97.534,VALID,0,VALID,19.6233,VALID,352,VALID,0.660937,
2012-04-19, 01:43:04,VALID,915.538,VALID,0,VALID,97.5187,VALID,0,VALID,19.5258,VALID,15,VALID,1.33516,
2012-04-19, 01:44:04,VALID,915.539,VALID,0,VALID,97.5187,VALID,0,VALID,19.4883,VALID,17,VALID,1.39219,
2012-04-19, 01:45:04,VALID,915.565,VALID,0,VALID,97.5187,VALID,0,VALID,19.4298,VALID,13,VALID,0.866797,
2012-04-19, 01:46:04,VALID,915.591,VALID,0,VALID,97.5187,VALID,0,VALID,19.3893,VALID,12,VALID,0.933594,
2012-04-19, 01:47:04,VALID,915.56,VALID,0,VALID,97.5187,VALID,0,VALID,19.3713,VALID,13,VALID,0.920703,
2012-04-19, 01:48:04,VALID,915.589,VALID,0,VALID,97.5035,VALID,0,VALID,19.3294,VALID,12,VALID,0.58125,
2012-04-19, 01:49:04,VALID,915.629,VALID,0,VALID,97.5187,VALID,0,VALID,19.3308,VALID,13,VALID,0.969531,
2012-04-19, 01:50:04,VALID,915.606,VALID,0,VALID,97.5035,VALID,0,VALID,19.2918,VALID,12,VALID,1.1375,
2012-04-19, 01:51:04,VALID,915.568,VALID,0,VALID,97.4959,VALID,0,VALID,19.2723,VALID,12,VALID,0.889844,
2012-04-19, 01:52:04,VALID,915.572,VALID,0,VALID,97.473,VALID,0,VALID,19.2723,VALID,12,VALID,1.00977,
2012-04-19, 01:53:04,VALID,915.542,VALID,0,VALID,97.5035,VALID,0,VALID,19.2543,VALID,12,VALID,0.827344,
2012-04-19, 01:54:04,VALID,915.536,VALID,0,VALID,97.5035,VALID,0,VALID,19.1944,VALID,354,VALID,0.732031,
2012-04-19, 01:55:04,VALID,915.533,VALID,0,VALID,97.4882,VALID,0,VALID,19.2153,VALID,354,VALID,0.810156,
2012-04-19, 01:56:04,VALID,915.538,VALID,0,VALID,97.5035,VALID,0,VALID,19.1749,VALID,354,VALID,0.90625,
2012-04-19, 01:57:04,VALID,915.544,VALID,0,VALID,97.5187,VALID,0,VALID,19.1958,VALID,354,VALID,0.514453,
2012-04-19, 01:58:04,VALID,915.562,VALID,0,VALID,97.534,VALID,0,VALID,19.2153,VALID,354,VALID,0.457031,
2012-04-19, 01:59:04,VALID,915.574,VALID,0,VALID,97.5645,VALID,0,VALID,19.2334,VALID,354,VALID,0.407031,
2012-04-19, 02:00:04,VALID,915.592,VALID,0,VALID,97.5416,VALID,0,VALID,19.2139,VALID,354,VALID,0,
2012-04-19, 02:01:04,VALID,915.622,VALID,0,VALID,97.5645,VALID,0,VALID,19.2543,VALID,354,VALID,0,
2012-04-19, 02:02:04,VALID,915.615,VALID,0,VALID,97.5721,VALID,0,VALID,19.3113,VALID,354,VALID,0,
2012-04-19, 02:03:04,VALID,915.589,VALID,0,VALID,97.5721,VALID,0,VALID,19.3113,VALID,354,VALID,0,
2012-04-19, 02:04:04,VALID,915.611,VALID,0,VALID,97.5873,VALID,0,VALID,19.3713,VALID,354,VALID,0,
2012-04-19, 02:05:04,VALID,915.62,VALID,0,VALID,97.595,VALID,0,VALID,19.3713,VALID,354,VALID,0,
2012-04-19, 02:06:04,VALID,915.627,VALID,0,VALID,97.595,VALID,0,VALID,19.3908,VALID,354,VALID,0,
2012-04-19, 02:07:04,VALID,915.609,VALID,0,VALID,97.6026,VALID,0,VALID,19.3323,VALID,354,VALID,0.391016,
2012-04-19, 02:08:04,VALID,915.624,VALID,0,VALID,97.5721,VALID,0,VALID,19.3128,VALID,354,VALID,0,
2012-04-19, 02:09:04,VALID,915.618,VALID,0,VALID,97.5721,VALID,0,VALID,19.2723,VALID,354,VALID,0,
2012-04-19, 02:10:04,VALID,915.618,VALID,0,VALID,97.5873,VALID,0.107441,VALID,19.2918,VALID,354,VALID,0.3,
2012-04-19, 02:11:04,VALID,915.615,VALID,0,VALID,97.5873,VALID,0,VALID,19.2918,VALID,354,VALID,0.494531,
2012-04-19, 02:12:04,VALID,915.598,VALID,0,VALID,97.6102,VALID,0.107441,VALID,19.2124,VALID,354,VALID,0.616797,
2012-04-19, 02:13:04,VALID,915.611,VALID,0,VALID,97.5721,VALID,0,VALID,19.1929,VALID,354,VALID,0.680078,
2012-04-19, 02:14:04,VALID,915.611,VALID,0,VALID,97.5721,VALID,0.107441,VALID,19.1734,VALID,354,VALID,0.385156,
2012-04-19, 02:15:04,VALID,915.625,VALID,0,VALID,97.5873,VALID,0.107441,VALID,19.1929,VALID,354,VALID,0.336328,
2012-04-19, 02:16:04,VALID,915.586,VALID,0,VALID,97.6026,VALID,0.107441,VALID,19.1734,VALID,354,VALID,0.510547,
2012-04-19, 02:17:04,VALID,915.558,VALID,0,VALID,97.6026,VALID,0,VALID,19.1149,VALID,100,VALID,0.974609,
2012-04-19, 02:18:04,VALID,915.524,VALID,0,VALID,97.5797,VALID,0.107441,VALID,19.0759,VALID,100,VALID,0.624219,
2012-04-19, 02:19:04,VALID,915.477,VALID,0,VALID,97.6102,VALID,0.107441,VALID,19.0969,VALID,100,VALID,0.108984,
2012-04-19, 02:20:04,VALID,915.444,VALID,0,VALID,97.5645,VALID,0.107441,VALID,19.0564,VALID,100,VALID,0.166406,
2012-04-19, 02:21:04,VALID,915.442,VALID,0,VALID,97.595,VALID,0.107441,VALID,19.0954,VALID,100,VALID,0,
2012-04-19, 02:22:04,VALID,915.406,VALID,0,VALID,97.5797,VALID,0.107441,VALID,19.0759,VALID,100,VALID,0,
2012-04-19, 02:23:04,VALID,915.419,VALID,0,VALID,97.6102,VALID,0.107441,VALID,19.1164,VALID,100,VALID,0,
2012-04-19, 02:24:04,VALID,915.407,VALID,0,VALID,97.6407,VALID,0.107441,VALID,19.0954,VALID,100,VALID,0,
2012-04-19, 02:25:04,VALID,915.406,VALID,0,VALID,97.6102,VALID,0,VALID,19.0788,VALID,100,VALID,0,
2012-04-19, 02:26:04,VALID,915.403,VALID,0,VALID,97.6178,VALID,0,VALID,19.0983,VALID,100,VALID,0,
2012-04-19, 02:27:04,VALID,915.4,VALID,0,VALID,97.6178,VALID,0,VALID,19.0788,VALID,100,VALID,0,
2012-04-19, 02:28:04,VALID,915.394,VALID,0,VALID,97.6102,VALID,0,VALID,19.0593,VALID,100,VALID,0,
2012-04-19, 02:29:04,VALID,915.395,VALID,0,VALID,97.6026,VALID,0,VALID,19.0189,VALID,100,VALID,0,
2012-04-19, 02:30:04,VALID,915.374,VALID,0,VALID,97.595,VALID,0,VALID,19.0008,VALID,100,VALID,0,
2012-04-19, 02:31:04,VALID,915.391,VALID,0,VALID,97.6102,VALID,0,VALID,18.9619,VALID,100,VALID,0,
2012-04-19, 02:32:04,VALID,915.385,VALID,0,VALID,97.6255,VALID,0,VALID,18.9214,VALID,100,VALID,0,
2012-04-19, 02:33:04,VALID,915.366,VALID,0,VALID,97.6102,VALID,0,VALID,18.9424,VALID,100,VALID,0,
2012-04-19, 02:34:04,VALID,915.4,VALID,0,VALID,97.595,VALID,0,VALID,18.9814,VALID,100,VALID,0,
2012-04-19, 02:35:04,VALID,915.345,VALID,0,VALID,97.6178,VALID,0,VALID,19.0203,VALID,100,VALID,0.148828,
2012-04-19, 02:36:04,VALID,915.367,VALID,0,VALID,97.6026,VALID,0,VALID,18.9994,VALID,100,VALID,0.0207031,
2012-04-19, 02:37:04,VALID,915.34,VALID,0,VALID,97.6407,VALID,0,VALID,19.0189,VALID,100,VALID,0,
2012-04-19, 02:38:04,VALID,915.306,VALID,0,VALID,97.6331,VALID,0,VALID,19.0983,VALID,100,VALID,0.0300781,
2012-04-19, 02:39:05,VALID,915.332,VALID,0,VALID,97.6331,VALID,0,VALID,19.0788,VALID,100,VALID,0.290234,
2012-04-19, 02:40:05,VALID,915.277,VALID,0,VALID,97.6483,VALID,0,VALID,19.0384,VALID,100,VALID,0.283203,
2012-04-19, 02:41:05,VALID,915.287,VALID,0,VALID,97.6255,VALID,0,VALID,19.0384,VALID,100,VALID,0.165625,
2012-04-19, 02:42:05,VALID,915.253,VALID,0,VALID,97.6255,VALID,0,VALID,18.9785,VALID,100,VALID,0,
2012-04-19, 02:43:05,VALID,915.249,VALID,0,VALID,97.6102,VALID,0,VALID,18.9409,VALID,100,VALID,0.225,
2012-04-19, 02:44:05,VALID,915.249,VALID,0,VALID,97.6178,VALID,0,VALID,18.9409,VALID,100,VALID,0,
2012-04-19, 02:45:05,VALID,915.204,VALID,0,VALID,97.6331,VALID,0,VALID,18.9005,VALID,100,VALID,0,
2012-04-19, 02:46:05,VALID,915.209,VALID,0,VALID,97.6178,VALID,0,VALID,18.9214,VALID,100,VALID,0,
2012-04-19, 02:47:05,VALID,915.156,VALID,0,VALID,97.6407,VALID,0,VALID,18.9019,VALID,100,VALID,0,
2012-04-19, 02:48:05,VALID,915.139,VALID,0,VALID,97.6255,VALID,0.107441,VALID,18.9409,VALID,100,VALID,0,
2012-04-19, 02:49:05,VALID,915.169,VALID,0,VALID,97.6331,VALID,0,VALID,18.9409,VALID,100,VALID,0,
2012-04-19, 02:50:05,VALID,915.153,VALID,0,VALID,97.6483,VALID,0,VALID,18.9799,VALID,100,VALID,0,
2012-04-19, 02:51:05,VALID,915.166,VALID,0,VALID,97.656,VALID,0,VALID,18.9799,VALID,100,VALID,0,
2012-04-19, 02:52:05,VALID,915.137,VALID,0,VALID,97.6483,VALID,0.107441,VALID,18.9799,VALID,100,VALID,0,
2012-04-19, 02:53:05,VALID,915.126,VALID,0,VALID,97.656,VALID,0,VALID,19.0189,VALID,100,VALID,0,
2012-04-19, 02:54:05,VALID,915.133,VALID,0,VALID,97.6636,VALID,0,VALID,19.0175,VALID,100,VALID,0,
2012-04-19, 02:55:05,VALID,915.093,VALID,0,VALID,97.6865,VALID,0,VALID,19.0189,VALID,100,VALID,0,
2012-04-19, 02:56:05,VALID,915.084,VALID,0,VALID,97.6712,VALID,0,VALID,19.0593,VALID,100,VALID,0.180469,
2012-04-19, 02:57:05,VALID,915.079,VALID,0,VALID,97.6483,VALID,0,VALID,19.1178,VALID,100,VALID,0.267969,
2012-04-19, 02:58:05,VALID,915.076,VALID,0,VALID,97.656,VALID,0,VALID,19.1778,VALID,100,VALID,0,
2012-04-19, 02:59:05,VALID,915.077,VALID,0,VALID,97.6712,VALID,0,VALID,19.1763,VALID,100,VALID,0,
2012-04-19, 03:00:05,VALID,915.102,VALID,0,VALID,97.656,VALID,0,VALID,19.1958,VALID,100,VALID,0,
2012-04-19, 03:01:05,VALID,915.076,VALID,0,VALID,97.6788,VALID,0,VALID,19.1749,VALID,100,VALID,0,
2012-04-19, 03:02:05,VALID,915.075,VALID,0,VALID,97.6331,VALID,0,VALID,19.1749,VALID,100,VALID,0,
2012-04-19, 03:03:05,VALID,915.076,VALID,0,VALID,97.6712,VALID,0,VALID,19.2153,VALID,100,VALID,0,
2012-04-19, 03:04:05,VALID,915.078,VALID,0,VALID,97.656,VALID,0,VALID,19.1763,VALID,100,VALID,0,
2012-04-19, 03:05:05,VALID,915.068,VALID,0,VALID,97.6712,VALID,0,VALID,19.1568,VALID,100,VALID,0,
2012-04-19, 03:06:05,VALID,915.06,VALID,0,VALID,97.6636,VALID,0,VALID,19.1568,VALID,100,VALID,0,
2012-04-19, 03:07:05,VALID,915.024,VALID,0,VALID,97.656,VALID,0,VALID,19.1568,VALID,100,VALID,0.128125,
2012-04-19, 03:08:05,VALID,915.037,VALID,0,VALID,97.6331,VALID,0,VALID,19.1568,VALID,100,VALID,0.185156,
2012-04-19, 03:09:05,VALID,915.03,VALID,0,VALID,97.656,VALID,0,VALID,19.1568,VALID,100,VALID,0,
2012-04-19, 03:10:05,VALID,915.014,VALID,0,VALID,97.6712,VALID,0,VALID,19.1373,VALID,100,VALID,0,
2012-04-19, 03:11:05,VALID,915.009,VALID,0,VALID,97.6483,VALID,0,VALID,19.1164,VALID,100,VALID,0.0949219,
2012-04-19, 03:12:05,VALID,914.952,VALID,0,VALID,97.6636,VALID,0,VALID,19.0384,VALID,100,VALID,0.802344,
2012-04-19, 03:13:05,VALID,914.945,VALID,0,VALID,97.6331,VALID,0,VALID,19.0384,VALID,100,VALID,0.887109,
2012-04-19, 03:14:05,VALID,914.932,VALID,0,VALID,97.6255,VALID,0,VALID,19.0189,VALID,100,VALID,0.994922,
2012-04-19, 03:15:05,VALID,914.959,VALID,0,VALID,97.656,VALID,0,VALID,19.0398,VALID,100,VALID,0.775,
2012-04-19, 03:16:05,VALID,914.93,VALID,0,VALID,97.6331,VALID,0,VALID,18.9799,VALID,100,VALID,0.753125,
2012-04-19, 03:17:05,VALID,914.972,VALID,0,VALID,97.6483,VALID,0,VALID,19.0398,VALID,100,VALID,0.630859,
2012-04-19, 03:18:05,VALID,914.984,VALID,0,VALID,97.6407,VALID,0,VALID,19.0203,VALID,100,VALID,0.665234,
2012-04-19, 03:19:05,VALID,914.971,VALID,0,VALID,97.6331,VALID,0,VALID,19.0189,VALID,100,VALID,0.553516,
2012-04-19, 03:20:05,VALID,914.964,VALID,0,VALID,97.6331,VALID,0,VALID,19.0384,VALID,100,VALID,0.155859,
2012-04-19, 03:21:05,VALID,914.92,VALID,0,VALID,97.6407,VALID,0,VALID,19.0593,VALID,100,VALID,0.113281,
2012-04-19, 03:22:05,VALID,914.933,VALID,0,VALID,97.6407,VALID,0,VALID,19.0398,VALID,100,VALID,0.299609,
2012-04-19, 03:23:05,VALID,914.905,VALID,0,VALID,97.6178,VALID,0,VALID,18.9409,VALID,100,VALID,0.425,
2012-04-19, 03:24:05,VALID,914.907,VALID,0,VALID,97.6026,VALID,0,VALID,18.9034,VALID,100,VALID,0.561328,
2012-04-19, 03:25:05,VALID,914.9,VALID,0,VALID,97.595,VALID,0,VALID,18.824,VALID,100,VALID,0.701563,
2012-04-19, 03:26:05,VALID,914.895,VALID,0,VALID,97.5873,VALID,0,VALID,18.8824,VALID,100,VALID,0.656641,
2012-04-19, 03:27:05,VALID,914.882,VALID,0,VALID,97.595,VALID,0,VALID,18.9019,VALID,100,VALID,0.533594,
2012-04-19, 03:28:05,VALID,914.9,VALID,0,VALID,97.6331,VALID,0,VALID,18.8839,VALID,100,VALID,0.557813,
2012-04-19, 03:29:05,VALID,914.872,VALID,0,VALID,97.6255,VALID,0,VALID,18.9034,VALID,100,VALID,0.0535156,
2012-04-19, 03:30:05,VALID,914.881,VALID,0,VALID,97.6407,VALID,0,VALID,18.9034,VALID,100,VALID,0.407422,
2012-04-19, 03:31:05,VALID,914.894,VALID,0,VALID,97.6178,VALID,0,VALID,18.8644,VALID,100,VALID,0.509375,
2012-04-19, 03:32:05,VALID,914.868,VALID,0,VALID,97.6331,VALID,0,VALID,18.8629,VALID,100,VALID,0.459766,
2012-04-19, 03:33:05,VALID,914.846,VALID,0,VALID,97.6636,VALID,0,VALID,18.8254,VALID,100,VALID,0.723828,
2012-04-19, 03:34:05,VALID,914.894,VALID,0,VALID,97.6407,VALID,0,VALID,18.8839,VALID,123,VALID,1.13086,
2012-04-19, 03:35:05,VALID,914.861,VALID,0,VALID,97.656,VALID,0,VALID,18.8434,VALID,123,VALID,1.17539,
2012-04-19, 03:36:05,VALID,914.857,VALID,0,VALID,97.656,VALID,0,VALID,18.8644,VALID,123,VALID,0.963281,
2012-04-19, 03:37:05,VALID,914.884,VALID,0,VALID,97.6636,VALID,0,VALID,18.8839,VALID,123,VALID,0.881641,
2012-04-19, 03:38:05,VALID,914.88,VALID,0,VALID,97.6865,VALID,0,VALID,18.8839,VALID,123,VALID,0.766406,
2012-04-19, 03:39:05,VALID,914.899,VALID,0,VALID,97.6788,VALID,0,VALID,18.9034,VALID,123,VALID,0.575,
2012-04-19, 03:40:05,VALID,914.842,VALID,0,VALID,97.6636,VALID,0,VALID,18.8629,VALID,123,VALID,0.650781,
2012-04-19, 03:41:05,VALID,914.872,VALID,0,VALID,97.6788,VALID,0,VALID,18.9243,VALID,123,VALID,0.754297,
2012-04-19, 03:42:05,VALID,914.871,VALID,0,VALID,97.7093,VALID,0,VALID,18.9034,VALID,123,VALID,0.600391,
2012-04-19, 03:43:05,VALID,914.869,VALID,0,VALID,97.6865,VALID,0,VALID,18.9034,VALID,123,VALID,0.652734,
2012-04-19, 03:44:05,VALID,914.886,VALID,0,VALID,97.7017,VALID,0,VALID,18.9034,VALID,123,VALID,0.582031,
2012-04-19, 03:45:05,VALID,914.874,VALID,0,VALID,97.7017,VALID,0,VALID,18.9034,VALID,123,VALID,0.48125,
2012-04-19, 03:46:05,VALID,914.881,VALID,0,VALID,97.7093,VALID,0,VALID,18.8839,VALID,123,VALID,0.451562,
2012-04-19, 03:47:05,VALID,914.892,VALID,0,VALID,97.6941,VALID,0,VALID,18.9034,VALID,123,VALID,0.819531,
2012-04-19, 03:48:05,VALID,914.894,VALID,0,VALID,97.7017,VALID,0,VALID,18.9229,VALID,123,VALID,0.848047,
2012-04-19, 03:49:05,VALID,914.867,VALID,0,VALID,97.7246,VALID,0,VALID,18.9229,VALID,123,VALID,0.672266,
2012-04-19, 03:50:05,VALID,914.893,VALID,0,VALID,97.7093,VALID,0,VALID,18.9034,VALID,123,VALID,0.825781,